DW4939 Weather Reports


time (UTC)temp
C
wind
direction
speed
KPH
gust
KPH
rain 1hr
cm
rain 24hr
cm
rain mn
cm
humidity
%
barometer
mb
20191018120229 17 165 12.9 20.9 0.00 0.48 0.03 75 1011.8
20191018115429 17 196 11.3 14.5 0.00 0.48 0.03 76 1011.7
20191018114629 17 190 8.0 12.9 0.00 0.48 0.03 76 1011.9
20191018113829 17 159 6.4 8.0 0.00 0.48 0.03 77 1011.9
20191018113029 17 204 6.4 9.7 0.00 0.48 0.03 78 1011.9
20191018112229 17 175 8.0 11.3 0.00 0.48 0.03 81 1012.2
20191018111429 16 163 8.0 11.3 0.00 0.48 0.03 82 1012.4
20191018110629 16 148 8.0 12.9 0.00 0.48 0.03 82 1012.4
20191018105829 16 200 6.4 6.4 0.00 0.48 0.03 83 1012.5
20191018105029 16 179 6.4 12.9 0.00 0.48 0.03 84 1012.6
20191018104229 16 184 9.7 14.5 0.00 0.48 0.03 85 1012.9
20191018103429 15 188 11.3 17.7 0.00 0.48 0.03 87 1013.1
20191018102629 15 219 8.0 17.7 0.00 0.48 0.03 87 1013.1
20191018101829 15 173 6.4 12.9 0.00 0.48 0.03 88 1013.1
20191018101029 15 160 8.0 9.7 0.00 0.48 0.03 90 1013.1
20191018100229 15 176 8.0 11.3 0.00 0.48 0.03 91 1013.0
20191018095429 15 177 8.0 16.1 0.00 0.48 0.03 92 1013.2
20191018094629 15 185 4.8 16.1 0.00 0.48 0.03 94 1013.1
20191018093829 14 176 6.4 12.9 0.00 0.48 0.03 94 1013.1
20191018093032 14 145 6.4 12.9 0.00 0.48 0.03 95 1013.2
20191018092229 14 136 8.0 11.3 0.00 0.48 0.03 94 1013.1
20191018091429 14 196 4.8 12.9 0.00 0.48 0.03 94 1013.2
20191018090629 14 194 4.8 8.0 0.00 0.48 0.03 94 1013.4
20191018085829 14 183 6.4 11.3 0.00 0.48 0.03 94 1013.5
20191018085029 14 188 8.0 11.3 0.00 0.48 0.03 92 1013.6
20191018084229 14 158 6.4 9.7 0.00 0.48 0.03 93 1013.5
20191018083429 14 144 4.8 8.0 0.00 0.48 0.03 94 1013.5
20191018082629 14 190 4.8 6.4 0.00 0.48 0.03 94 1013.7
20191018081829 13 175 6.4 8.0 0.00 0.48 0.03 94 1013.8
20191018081029 14 159 3.2 6.4 0.00 0.48 0.03 95 1013.9
20191018080229 14 137 3.2 6.4 0.00 0.48 0.03 96 1013.7
20191018075429 13 207 4.8 8.0 0.00 0.48 0.03 97 1013.7
20191018074629 13 139 4.8 8.0 0.00 0.48 0.03 100 1014.0
20191018073829 13 137 4.8 6.4 0.00 0.48 0.03 100 1013.9
20191018073029 13 244 4.8 6.4 0.00 0.48 0.03 100 1014.0
20191018072228 13 154 4.8 9.7 0.00 0.48 0.03 100 1014.4
20191018071429 13 181 8.0 11.3 0.00 0.48 0.03 99 1014.1
20191018070629 12 160 8.0 11.3 0.00 0.48 0.03 99 1014.1
20191018065830 12 171 8.0 9.7 0.00 0.48 0.03 99 1014.0
20191018065028 12 176 8.0 11.3 0.00 0.48 0.03 97 1014.3
20191018064228 12 177 9.7 14.5 0.00 0.48 0.03 97 1014.4
20191018063428 12 151 8.0 14.5 0.00 0.48 0.03 97 1014.2
20191018062630 12 156 6.4 8.0 0.00 0.48 0.03 97 1014.4
20191018061829 12 182 6.4 8.0 0.00 0.48 0.03 97 1014.1
20191018061028 12 171 6.4 8.0 0.00 0.48 0.03 97 1014.3
20191018060228 12 151 6.4 8.0 0.00 0.48 0.03 97 1014.2
20191018055428 12 190 4.8 6.4 0.00 0.48 0.03 97 1013.9
20191018054629 12 174 6.4 8.0 0.00 0.48 0.03 97 1014.1
20191018053829 12 168 6.4 8.0 0.00 0.48 0.03 97 1014.1
20191018053028 12 158 6.4 12.9 0.00 0.48 0.03 97 1014.0
20191018052228 12 208 3.2 6.4 0.00 0.48 0.03 97 1014.0
20191018051428 12 156 4.8 9.7 0.00 0.48 0.03 97 1014.0
20191018050628 12 157 4.8 9.7 0.00 0.48 0.03 97 1014.2
20191018045828 12 186 4.8 6.4 0.00 0.48 0.03 97 1014.0
20191018045028 12 168 4.8 6.4 0.00 0.48 0.03 97 1014.0
20191018044228 12 173 4.8 9.7 0.00 0.48 0.03 97 1014.0
20191018043428 12 168 4.8 9.7 0.00 0.48 0.03 97 1014.0
20191018042628 12 159 4.8 9.7 0.00 0.48 0.03 97 1014.1
20191018041828 12 169 4.8 9.7 0.00 0.48 0.03 97 1014.1
20191018041028 12 213 4.8 6.4 0.00 0.48 0.03 97 1014.3
20191018040229 12 191 8.0 11.3 0.00 0.48 0.03 97 1014.3
20191018035428 12 166 8.0 11.3 0.00 0.48 0.03 97 1014.2
20191018034628 12 179 8.0 11.3 0.00 0.48 0.03 97 1014.4
20191018033828 12 160 6.4 8.0 0.00 0.48 0.03 97 1014.4
20191018033028 12 172 6.4 9.7 0.00 0.48 0.03 97 1014.3
20191018032230 12 187 6.4 9.7 0.00 0.48 0.03 97 1014.4
20191018031428 12 161 6.4 9.7 0.00 0.48 0.03 97 1014.3
20191018030628 12 163 8.0 11.3 0.00 0.48 0.03 97 1014.4
20191018025828 12 158 8.0 11.3 0.00 0.48 0.03 97 1014.5
20191018025028 12 155 8.0 11.3 0.00 0.48 0.03 97 1014.5
20191018024228 12 152 8.0 12.9 0.00 0.48 0.03 97 1014.5
20191018023428 12 169 6.4 11.3 0.00 0.48 0.03 97 1014.5
20191018022628 12 182 8.0 11.3 0.00 0.48 0.03 97 1014.4
20191018021828 12 162 8.0 12.9 0.00 0.48 0.03 97 1014.6
20191018021028 12 170 9.7 12.9 0.00 0.48 0.03 97 1014.5
20191018020229 12 166 6.4 12.9 0.03 0.48 0.03 97 1014.5
20191018015428 12 204 6.4 9.7 0.03 0.48 0.03 97 1014.6
20191018014628 12 200 6.4 9.7 0.03 0.48 0.03 97 1014.6
20191018013828 12 161 8.0 11.3 0.03 0.48 0.03 97 1014.6
20191018013028 12 166 9.7 11.3 0.03 0.48 0.03 97 1014.6
20191018012228 12 163 4.8 11.3 0.03 0.48 0.03 97 1014.5
20191018011428 12 186 6.4 9.7 0.03 0.48 0.03 97 1014.4
20191018010628 12 177 6.4 9.7 0.00 0.46 0.00 99 1014.6
20191018005828 12 176 8.0 12.9 0.00 0.46 0.00 99 1014.6
20191018005028 12 175 11.3 14.5 0.00 0.46 0.00 99 1014.8
20191018004228 12 182 12.9 16.1 0.00 0.46 0.00 99 1014.7
20191018003428 12 173 11.3 17.7 0.00 0.46 0.00 99 1014.8
20191018002628 12 160 11.3 16.1 0.00 0.46 0.00 99 1014.9
20191018001828 12 177 11.3 14.5 0.00 0.46 0.00 99 1014.9
20191018001028 12 153 11.3 16.1 0.00 0.46 0.00 99 1015.0
20191018000228 12 169 11.3 16.1 0.00 0.46 0.00 99 1014.7
20191017235431 12 152 11.3 17.7 0.00 0.46 0.00 99 1014.9
20191017234628 12 163 9.7 12.9 0.00 0.46 0.00 99 1014.9
20191017233828 12 181 11.3 14.5 0.00 0.46 0.00 99 1015.0
20191017233028 12 168 11.3 12.9 0.00 0.46 0.00 99 1015.0
20191017232228 12 158 11.3 12.9 0.00 0.46 0.00 99 1014.8
20191017231427 12 178 9.7 12.9 0.00 0.46 0.00 97 1015.0
20191017230627 12 187 9.7 12.9 0.00 0.46 0.00 97 1014.8
20191017225828 12 179 9.7 14.5 0.00 0.46 0.00 99 1014.7
20191017225027 12 173 9.7 12.9 0.03 0.46 0.00 97 1015.0
20191017224227 12 163 11.3 17.7 0.03 0.46 0.00 97 1015.0
20191017223427 12 167 12.9 17.7 0.03 0.46 0.00 97 1014.9
20191017222627 12 149 11.3 17.7 0.03 0.46 0.00 97 1015.2
20191017221828 12 155 11.3 17.7 0.03 0.46 0.00 97 1015.3
20191017221027 12 186 11.3 14.5 0.03 0.46 0.00 97 1015.0
20191017220227 12 160 9.7 14.5 0.03 0.46 0.00 97 1015.1
20191017215427 12 153 6.4 9.7 0.00 0.43 0.46 97 1015.0
20191017214627 12 189 4.8 8.0 0.00 0.43 0.43 97 1015.1
20191017213827 12 171 6.4 8.0 0.00 0.43 0.43 97 1015.3
20191017213028 12 177 4.8 8.0 0.00 0.43 0.43 97 1015.3
20191017212228 12 168 6.4 6.4 0.05 0.43 0.43 97 1015.5
20191017211428 12 144 6.4 6.4 0.05 0.43 0.43 97 1015.5
20191017210627 12 168 6.4 8.0 0.05 0.43 0.43 97 1015.4
20191017205828 12 184 6.4 8.0 0.10 0.43 0.43 97 1015.5
20191017205027 12 181 6.4 8.0 0.13 0.43 0.43 97 1015.5
20191017204227 12 157 6.4 8.0 0.15 0.43 0.43 97 1015.5
20191017203427 12 157 3.2 6.4 0.20 0.43 0.43 97 1015.4
20191017202630 12 198 3.2 4.8 0.20 0.38 0.38 97 1015.7
20191017201827 12 202 4.8 6.4 0.20 0.36 0.36 97 1015.6
20191017201027 12 223 3.2 4.8 0.23 0.36 0.36 97 1015.7
20191017200227 12 234 3.2 4.8 0.20 0.33 0.33 97 1015.5
20191017195429 12 205 3.2 4.8 0.23 0.33 0.33 97 1015.5
20191017194627 12 174 4.8 6.4 0.20 0.30 0.30 97 1015.7
20191017193827 12 201 4.8 6.4 0.18 0.23 0.23 97 1015.6
20191017193027 12 207 4.8 6.4 0.13 0.18 0.20 97 1015.3
20191017192227 12 156 4.8 8.0 0.10 0.15 0.15 97 1015.4
20191017191427 12 211 3.2 4.8 0.10 0.13 0.13 97 1015.6
20191017190627 12 2 1.6 6.4 0.10 0.13 0.13 96 1015.5
20191017185827 12 206 1.6 3.2 0.13 0.13 0.13 96 1015.6
20191017185027 13 189 1.6 3.2 0.10 0.10 0.10 96 1015.4
20191017184227 13 191 1.6 3.2 0.05 0.05 0.05 95 1015.6
20191017183427 13 183 1.6 3.2 0.05 0.05 0.05 94 1015.8
20191017182627 13 186 3.2 11.3 0.05 0.05 0.05 93 1015.7
20191017181827 13 152 6.4 11.3 0.05 0.05 0.05 92 1015.7
20191017181027 13 135 1.6 8.0 0.03 0.03 0.03 91 1015.7
20191017180227 13 176 3.2 4.8 0.00 0.00 0.00 88 1015.8
20191017175427 14 201 3.2 4.8 0.00 0.00 0.00 87 1015.6
20191017174629 14 154 3.2 6.4 0.00 0.00 0.00 86 1015.6
20191017173827 14 277 0.0 3.2 0.00 0.00 0.00 87 1015.7
20191017173027 14 119 1.6 6.4 0.00 0.00 0.00 87 1015.5
20191017172227 13 137 3.2 6.4 0.00 0.00 0.00 89 1015.5
20191017171427 13 99 3.2 4.8 0.00 0.00 0.00 89 1015.3
20191017170627 13 106 1.6 3.2 0.00 0.00 0.00 90 1015.4
20191017165827 13 353 0.0 3.2 0.00 0.00 0.00 90 1015.4
20191017165027 13 344 0.0 3.2 0.00 0.00 0.00 90 1015.5
20191017164227 13 1 0.0 3.2 0.00 0.00 0.00 90 1015.3
20191017163430 13 352 1.6 3.2 0.00 0.00 0.00 89 1015.6
20191017162627 13 350 0.0 3.2 0.00 0.00 0.00 88 1015.6
20191017161827 14 0 0.0 0.0 0.00 0.00 0.00 88 1015.6
20191017161027 14 0 0.0 0.0 0.00 0.00 0.00 87 1015.6
20191017160227 14 0 0.0 0.0 0.00 0.00 0.00 87 1015.5
20191017155427 14 314 0.0 1.6 0.00 0.00 0.00 86 1015.6
20191017154627 14 314 0.0 1.6 0.00 0.00 0.00 86 1015.6
20191017153827 15 0 0.0 0.0 0.00 0.00 0.00 85 1015.6
20191017153037 15 0 0.0 0.0 0.00 0.00 0.00 85 1015.7
20191017152227 15 0 0.0 0.0 0.00 0.00 0.00 83 1015.6
20191017151427 15 0 0.0 0.0 0.00 0.00 0.00 82 1015.7
20191017150627 15 326 0.0 1.6 0.00 0.00 0.00 81 1015.6
20191017145827 15 338 1.6 3.2 0.00 0.00 0.00 81 1015.6
20191017145027 15 204 1.6 3.2 0.00 0.00 0.00 80 1015.7
20191017144227 15 201 1.6 3.2 0.00 0.00 0.00 80 1015.6
20191017143430 16 171 3.2 3.2 0.00 0.00 0.00 79 1015.8
20191017142627 16 149 1.6 6.4 0.00 0.00 0.00 78 1015.8
20191017141826 16 110 1.6 6.4 0.00 0.00 0.00 78 1015.7
20191017141026 16 0 0.0 0.0 0.00 0.00 0.00 80 1015.7
20191017140226 15 0 0.0 0.0 0.00 0.00 0.00 79 1015.8
20191017135427 15 0 0.0 0.0 0.00 0.00 0.00 79 1016.0
20191017134627 15 0 0.0 0.0 0.00 0.00 0.00 80 1015.8
20191017133827 15 314 0.0 3.2 0.00 0.00 0.00 81 1016.1
20191017133027 15 314 1.6 3.2 0.00 0.00 0.00 80 1015.9
20191017132226 15 331 1.6 4.8 0.00 0.00 0.00 81 1016.1
20191017131427 15 273 3.2 4.8 0.00 0.00 0.00 81 1016.1
20191017130626 15 208 4.8 6.4 0.00 0.00 0.00 81 1016.2
20191017125826 15 243 4.8 6.4 0.00 0.00 0.00 81 1016.4
20191017125026 14 171 4.8 9.7 0.00 0.00 0.00 82 1016.3
20191017124226 14 176 6.4 9.7 0.00 0.00 0.00 81 1016.4
20191017123426 14 184 6.4 8.0 0.00 0.00 0.00 82 1016.3
20191017122626 14 192 6.4 8.0 0.00 0.00 0.00 83 1016.3
20191017121826 14 160 6.4 11.3 0.00 0.00 0.00 83 1016.5
20191017121026 13 213 9.7 11.3 0.00 0.00 0.00 83 1016.4